TRA3F EHAM-LGKF

Flight info

Callsign TRA3F
Flight time 2h 37m
Altitude 37000
Route EDUPO Z739 MISGO DCT ASBON DCT TUSUK DCT UTABA DCT BEMKI DCT ELMEM DCT DIRAB DCT RASUG DCT OKLAX DCT SIPAL DCT RODON DCT LIMJA DCT PITAS UN732 KRK UT321 ASTUS
Aircraft B738/M-SDE2E3FGHIRWXY/LB1

Departure

Time 2026-05-08 03:25
Airport Amsterdam Airport Schiphol (EHAM)

Arrival

Time 2026-05-08 06:03
Airport Kefallinia Airport (LGKF)
Time Latitude Longitude Altitude Speed Heading
2026-05-08 02:59 52.30505 4.76547 -12 ft 0 kts 58°
2026-05-08 03:18 52.30496 4.76525 -2 ft 6 kts 58°
2026-05-08 03:18 52.30483 4.76465 -2 ft 6 kts 111°
2026-05-08 03:18 52.30493 4.76440 -2 ft 0 kts 149°
2026-05-08 03:20 52.30475 4.76458 -2 ft 16 kts 148°
2026-05-08 03:21 52.30363 4.76559 -2 ft 18 kts 166°
2026-05-08 03:21 52.30267 4.76452 -2 ft 18 kts 238°
2026-05-08 03:21 52.30202 4.76284 -2 ft 17 kts 237°
2026-05-08 03:21 52.30138 4.76126 -2 ft 17 kts 237°
2026-05-08 03:22 52.30081 4.75958 -2 ft 19 kts 238°
2026-05-08 03:22 52.29987 4.75725 -2 ft 28 kts 239°
2026-05-08 03:22 52.29888 4.75463 -2 ft 27 kts 238°
2026-05-08 03:22 52.29842 4.75198 -2 ft 26 kts 301°
2026-05-08 03:23 52.29967 4.74960 -2 ft 27 kts 312°
2026-05-08 03:23 52.30089 4.74737 2 ft 25 kts 311°
2026-05-08 03:23 52.30211 4.74511 9 ft 28 kts 311°
2026-05-08 03:23 52.30337 4.74274 -2 ft 23 kts 309°
2026-05-08 03:24 52.30331 4.74050 -2 ft 24 kts 220°
2026-05-08 03:24 52.30195 4.73844 -3 ft 23 kts 256°
2026-05-08 03:24 52.30362 4.73747 -5 ft 63 kts
2026-05-08 03:24 52.31092 4.73822 0 ft 145 kts
2026-05-08 03:25 52.32254 4.73869 476 ft 182 kts
2026-05-08 03:25 52.33512 4.73998 1727 ft 175 kts
2026-05-08 03:25 52.34724 4.74550 2598 ft 193 kts 26°
2026-05-08 03:25 52.36035 4.75541 2959 ft 221 kts 25°
2026-05-08 03:26 52.37494 4.76649 3311 ft 240 kts 28°
2026-05-08 03:26 52.38830 4.78452 3658 ft 258 kts 48°
2026-05-08 03:26 52.40072 4.80637 4440 ft 264 kts 47°
2026-05-08 03:26 52.41335 4.82812 5400 ft 264 kts 48°
2026-05-08 03:27 52.42246 4.85426 6225 ft 268 kts 76°
2026-05-08 03:27 52.42438 4.88466 7064 ft 271 kts 90°
2026-05-08 03:27 52.42436 4.91579 7854 ft 276 kts 91°
2026-05-08 03:27 52.42428 4.94747 8642 ft 280 kts 91°
2026-05-08 03:28 52.42125 4.97892 9412 ft 283 kts 115°
2026-05-08 03:28 52.41011 5.00522 10206 ft 283 kts 139°
2026-05-08 03:28 52.39415 5.02525 10613 ft 300 kts 146°
2026-05-08 03:28 52.37617 5.04535 10787 ft 325 kts 146°
2026-05-08 03:29 52.35691 5.06695 10956 ft 347 kts 146°
2026-05-08 03:29 52.33665 5.09022 11319 ft 362 kts 143°
2026-05-08 03:29 52.31827 5.11890 11959 ft 368 kts 132°
2026-05-08 03:29 52.30157 5.15080 12709 ft 372 kts 131°
2026-05-08 03:30 52.26716 5.21521 14056 ft 381 kts 133°
2026-05-08 03:30 52.23215 5.28130 15305 ft 389 kts 128°
2026-05-08 03:31 52.20069 5.35418 16501 ft 397 kts 125°
2026-05-08 03:31 52.16916 5.42888 17667 ft 405 kts 126°
2026-05-08 03:32 52.15290 5.46665 18248 ft 409 kts 126°
2026-05-08 03:32 52.13640 5.50462 18771 ft 413 kts 127°
2026-05-08 03:32 52.11971 5.54283 19282 ft 416 kts 127°
2026-05-08 03:32 52.10285 5.58133 19770 ft 419 kts 127°
2026-05-08 03:33 52.08584 5.62012 20273 ft 423 kts 127°
2026-05-08 03:33 52.06871 5.65912 20766 ft 426 kts 127°
2026-05-08 03:33 52.05087 5.69777 21241 ft 428 kts 130°
2026-05-08 03:33 52.03135 5.73454 21710 ft 431 kts 133°
2026-05-08 03:34 52.01123 5.77087 22173 ft 434 kts 133°
2026-05-08 03:34 51.99111 5.80771 22634 ft 438 kts 133°
2026-05-08 03:34 51.97103 5.84504 23083 ft 441 kts 132°
2026-05-08 03:34 51.95084 5.88274 23521 ft 444 kts 132°
2026-05-08 03:35 51.93054 5.92060 23890 ft 447 kts 133°
2026-05-08 03:35 51.91007 5.95869 24270 ft 449 kts 133°
2026-05-08 03:35 51.88949 5.99692 24644 ft 451 kts 133°
2026-05-08 03:35 51.86882 6.03525 25006 ft 453 kts 133°
2026-05-08 03:36 51.84800 6.07374 25352 ft 456 kts 133°
2026-05-08 03:36 51.82724 6.11181 25696 ft 458 kts 133°
2026-05-08 03:36 51.80579 6.15100 26038 ft 460 kts 133°
2026-05-08 03:36 51.78483 6.18926 26365 ft 462 kts 133°
2026-05-08 03:37 51.76348 6.22822 26687 ft 465 kts 133°
2026-05-08 03:37 51.74203 6.26736 26992 ft 467 kts 133°
2026-05-08 03:37 51.72047 6.30672 27307 ft 469 kts 133°
2026-05-08 03:37 51.69883 6.34620 27610 ft 471 kts 133°
2026-05-08 03:38 51.67708 6.38581 27915 ft 473 kts 133°
2026-05-08 03:38 51.65523 6.42554 28200 ft 475 kts 133°
2026-05-08 03:38 51.63328 6.46536 28480 ft 477 kts 133°
2026-05-08 03:38 51.61123 6.50527 28826 ft 477 kts 133°
2026-05-08 03:39 51.58922 6.54507 29275 ft 475 kts 134°
2026-05-08 03:39 51.56729 6.58468 29727 ft 473 kts 134°
2026-05-08 03:39 51.54543 6.62411 30135 ft 472 kts 134°
2026-05-08 03:39 51.52355 6.66351 30437 ft 472 kts 134°
2026-05-08 03:40 51.50168 6.70283 30745 ft 472 kts 134°
2026-05-08 03:40 51.47983 6.74208 31076 ft 471 kts 134°
2026-05-08 03:40 51.45801 6.78122 31409 ft 470 kts 134°
2026-05-08 03:40 51.43620 6.82027 31712 ft 470 kts 134°
2026-05-08 03:41 51.41415 6.85888 32007 ft 469 kts 137°
2026-05-08 03:41 51.38970 6.89303 32301 ft 465 kts 147°
2026-05-08 03:41 51.36269 6.92120 32622 ft 462 kts 150°
2026-05-08 03:41 51.33533 6.94817 32929 ft 462 kts 151°
2026-05-08 03:42 51.30793 6.97494 33204 ft 462 kts 151°
2026-05-08 03:42 51.28056 7.00179 33486 ft 462 kts 151°
2026-05-08 03:42 51.25328 7.02875 33787 ft 461 kts 150°
2026-05-08 03:42 51.22633 7.05554 34076 ft 460 kts 150°
2026-05-08 03:43 51.19949 7.08232 34304 ft 461 kts 150°
2026-05-08 03:43 51.17231 7.10947 34498 ft 461 kts 150°
2026-05-08 03:43 51.14516 7.13657 34705 ft 461 kts 150°
2026-05-08 03:43 51.11797 7.16369 34914 ft 461 kts 150°
2026-05-08 03:44 51.09081 7.19073 35121 ft 461 kts 150°
2026-05-08 03:44 51.06394 7.21743 35306 ft 461 kts 150°
2026-05-08 03:44 51.03637 7.24477 35504 ft 461 kts 150°
2026-05-08 03:44 51.00915 7.27175 35716 ft 461 kts 150°
2026-05-08 03:45 50.98228 7.29832 35900 ft 461 kts 150°
2026-05-08 03:45 50.95503 7.32524 36078 ft 462 kts 150°
2026-05-08 03:45 50.92775 7.35215 36275 ft 461 kts 150°
2026-05-08 03:45 50.90048 7.37901 36465 ft 461 kts 150°
2026-05-08 03:46 50.87324 7.40581 36635 ft 462 kts 150°
2026-05-08 03:46 50.84593 7.43264 36796 ft 462 kts 150°
2026-05-08 03:46 50.81859 7.45946 36996 ft 462 kts 150°
2026-05-08 03:46 50.79130 7.48620 37101 ft 463 kts 150°
2026-05-08 03:47 50.76380 7.51311 37092 ft 465 kts 150°
2026-05-08 03:47 50.70894 7.56694 37097 ft 463 kts 149°
2026-05-08 03:48 50.65517 7.62246 37097 ft 461 kts 149°
2026-05-08 03:48 50.60189 7.67816 37092 ft 459 kts 149°
2026-05-08 03:49 50.54868 7.73332 37095 ft 457 kts 149°
2026-05-08 03:49 50.49545 7.78811 37113 ft 457 kts 149°
2026-05-08 03:50 50.44210 7.84281 37113 ft 459 kts 149°
2026-05-08 03:50 50.38852 7.89761 37115 ft 461 kts 149°
2026-05-08 03:51 50.33471 7.95251 37114 ft 463 kts 149°
2026-05-08 03:51 50.28064 8.00752 37114 ft 465 kts 149°
2026-05-08 03:52 50.23550 8.05335 37111 ft 466 kts 149°
2026-05-08 03:52 50.17745 8.11213 37112 ft 467 kts 149°
2026-05-08 03:53 50.12223 8.16565 37085 ft 466 kts 156°
2026-05-08 03:53 50.06371 8.20857 37099 ft 465 kts 158°
2026-05-08 03:54 50.00472 8.24975 37099 ft 465 kts 158°
2026-05-08 03:54 49.94587 8.29134 37102 ft 464 kts 158°
2026-05-08 03:55 49.88720 8.33328 37099 ft 464 kts 158°
2026-05-08 03:55 49.82903 8.37496 37095 ft 463 kts 158°
2026-05-08 03:56 49.77052 8.41680 37093 ft 463 kts 158°
2026-05-08 03:56 49.71212 8.45841 37092 ft 462 kts 158°
2026-05-08 03:57 49.65373 8.49989 37100 ft 462 kts 158°
2026-05-08 03:57 49.59541 8.54122 37097 ft 461 kts 158°
2026-05-08 03:58 49.53715 8.58239 37104 ft 461 kts 158°
2026-05-08 03:58 49.48833 8.61680 37104 ft 460 kts 158°
2026-05-08 03:59 49.43047 8.65750 37103 ft 460 kts 158°
2026-05-08 03:59 49.37220 8.69836 37101 ft 461 kts 158°
2026-05-08 04:00 49.31383 8.73920 37080 ft 461 kts 158°
2026-05-08 04:00 49.25540 8.77997 37083 ft 462 kts 158°
2026-05-08 04:01 49.19692 8.82067 37078 ft 462 kts 159°
2026-05-08 04:01 49.13836 8.86132 37054 ft 462 kts 159°
2026-05-08 04:02 49.07977 8.90189 37068 ft 463 kts 159°
2026-05-08 04:02 49.02114 8.94237 37068 ft 463 kts 159°
2026-05-08 04:03 48.96247 8.98278 37064 ft 463 kts 159°
2026-05-08 04:03 48.89198 9.03119 37068 ft 462 kts 159°
2026-05-08 04:04 48.83454 9.07053 37077 ft 462 kts 159°
2026-05-08 04:04 48.77593 9.11057 37062 ft 461 kts 159°
2026-05-08 04:05 48.71757 9.15034 37072 ft 459 kts 159°
2026-05-08 04:05 48.65943 9.18986 37078 ft 458 kts 159°
2026-05-08 04:06 48.60142 9.22918 37078 ft 456 kts 159°
2026-05-08 04:06 48.54350 9.26835 37075 ft 456 kts 159°
2026-05-08 04:07 48.48558 9.30741 37068 ft 456 kts 159°
2026-05-08 04:07 48.42769 9.34636 37069 ft 456 kts 159°
2026-05-08 04:08 48.36966 9.38531 37067 ft 456 kts 159°
2026-05-08 04:08 48.31162 9.42418 37062 ft 457 kts 159°
2026-05-08 04:09 48.25404 9.46508 37053 ft 461 kts 152°
2026-05-08 04:09 48.20285 9.52374 37057 ft 465 kts 143°
2026-05-08 04:10 48.15328 9.58616 37052 ft 466 kts 143°
2026-05-08 04:10 48.10347 9.64814 37049 ft 466 kts 143°
2026-05-08 04:11 48.05949 9.70214 37045 ft 466 kts 143°
2026-05-08 04:11 48.00928 9.76339 37049 ft 466 kts 144°
2026-05-08 04:12 47.95942 9.82405 37049 ft 465 kts 144°
2026-05-08 04:12 47.90924 9.88496 37047 ft 465 kts 144°
2026-05-08 04:13 47.85912 9.94568 37052 ft 464 kts 144°
2026-05-08 04:13 47.80900 10.00623 37048 ft 464 kts 144°
2026-05-08 04:14 47.75895 10.06654 37050 ft 463 kts 144°
2026-05-08 04:14 47.70888 10.12672 37048 ft 463 kts 144°
2026-05-08 04:15 47.65887 10.18669 37049 ft 462 kts 144°
2026-05-08 04:15 47.60885 10.24652 37045 ft 462 kts 144°
2026-05-08 04:16 47.55876 10.30612 37050 ft 461 kts 146°
2026-05-08 04:16 47.50595 10.35945 37048 ft 459 kts 150°
2026-05-08 04:17 47.45229 10.41041 37035 ft 458 kts 150°
2026-05-08 04:17 47.39899 10.46163 37042 ft 457 kts 150°
2026-05-08 04:18 47.34581 10.51316 37031 ft 458 kts 150°
2026-05-08 04:18 47.29256 10.56466 37037 ft 457 kts 150°
2026-05-08 04:19 47.23998 10.61780 37043 ft 460 kts 148°
2026-05-08 04:19 47.18806 10.67302 37039 ft 461 kts 147°
2026-05-08 04:20 47.13597 10.72811 37042 ft 462 kts 148°
2026-05-08 04:20 47.08364 10.78282 37041 ft 461 kts 148°
2026-05-08 04:21 47.03135 10.83722 37042 ft 460 kts 148°
2026-05-08 04:21 46.97908 10.89147 37048 ft 461 kts 148°
2026-05-08 04:22 46.92665 10.94575 37028 ft 461 kts 149°
2026-05-08 04:22 46.87439 10.99977 37035 ft 460 kts 149°
2026-05-08 04:23 46.82236 11.05394 37043 ft 461 kts 145°
2026-05-08 04:23 46.77724 11.12112 37045 ft 466 kts 134°
2026-05-08 04:24 46.73558 11.19323 37055 ft 463 kts 134°
2026-05-08 04:24 46.69398 11.26491 37039 ft 463 kts 135°
2026-05-08 04:25 46.65211 11.33593 37044 ft 462 kts 135°
2026-05-08 04:25 46.61001 11.40672 37062 ft 463 kts 135°
2026-05-08 04:26 46.56779 11.47748 37051 ft 463 kts 135°
2026-05-08 04:26 46.52553 11.54814 37067 ft 464 kts 135°
2026-05-08 04:27 46.48342 11.61840 37063 ft 465 kts 135°
2026-05-08 04:27 46.44085 11.68925 37073 ft 466 kts 136°
2026-05-08 04:28 46.39820 11.76006 37064 ft 467 kts 136°
2026-05-08 04:28 46.35544 11.83088 37049 ft 467 kts 136°
2026-05-08 04:29 46.31268 11.90152 37066 ft 466 kts 136°
2026-05-08 04:29 46.26995 11.97190 37061 ft 465 kts 136°
2026-05-08 04:30 46.22732 12.04199 37062 ft 464 kts 136°
2026-05-08 04:30 46.18463 12.11193 37059 ft 464 kts 136°
2026-05-08 04:31 46.14189 12.18177 37057 ft 465 kts 136°
2026-05-08 04:31 46.09909 12.25156 37063 ft 465 kts 136°
2026-05-08 04:32 46.05618 12.32134 37054 ft 466 kts 136°
2026-05-08 04:32 46.01313 12.39118 37053 ft 467 kts 137°
2026-05-08 04:33 45.96996 12.46103 37043 ft 467 kts 137°
2026-05-08 04:33 45.92680 12.53071 37053 ft 467 kts 137°
2026-05-08 04:34 45.88363 12.60022 37049 ft 466 kts 137°
2026-05-08 04:34 45.84041 12.66963 37048 ft 466 kts 137°
2026-05-08 04:35 45.79719 12.73886 37014 ft 466 kts 137°
2026-05-08 04:35 45.75400 12.80789 37020 ft 465 kts 137°
2026-05-08 04:36 45.71075 12.87685 37027 ft 465 kts 137°
2026-05-08 04:36 45.66799 12.94642 37032 ft 467 kts 135°
2026-05-08 04:37 45.62756 13.01932 37048 ft 468 kts 133°
2026-05-08 04:37 45.58769 13.09281 37044 ft 468 kts 133°
2026-05-08 04:38 45.54759 13.16595 37042 ft 468 kts 134°
2026-05-08 04:38 45.50728 13.23872 37044 ft 467 kts 134°
2026-05-08 04:39 45.46688 13.31122 37043 ft 467 kts 134°
2026-05-08 04:39 45.42641 13.38366 37045 ft 467 kts 134°
2026-05-08 04:40 45.38595 13.45593 37044 ft 467 kts 134°
2026-05-08 04:40 45.34570 13.52765 37046 ft 467 kts 134°
2026-05-08 04:41 45.30487 13.60023 37045 ft 467 kts 134°
2026-05-08 04:41 45.26427 13.67221 37043 ft 467 kts 135°
2026-05-08 04:42 45.22543 13.74090 37046 ft 467 kts 135°
2026-05-08 04:42 45.18474 13.81268 37040 ft 466 kts 135°
2026-05-08 04:43 45.14414 13.88415 37043 ft 465 kts 135°
2026-05-08 04:43 45.11015 13.94382 37035 ft 465 kts 135°
2026-05-08 04:44 45.06956 14.01490 37032 ft 464 kts 135°
2026-05-08 04:44 45.02911 14.08559 37046 ft 462 kts 135°
2026-05-08 04:45 44.98862 14.15614 37031 ft 462 kts 135°
2026-05-08 04:45 44.94812 14.22654 37038 ft 462 kts 135°
2026-05-08 04:46 44.90760 14.29682 37030 ft 462 kts 135°
2026-05-08 04:46 44.86729 14.36654 37022 ft 462 kts 135°
2026-05-08 04:47 44.82659 14.43677 37030 ft 463 kts 135°
2026-05-08 04:47 44.78582 14.50695 37018 ft 463 kts 135°
2026-05-08 04:48 44.74495 14.57713 37016 ft 463 kts 135°
2026-05-08 04:48 44.70406 14.64718 37024 ft 464 kts 135°
2026-05-08 04:49 44.66307 14.71722 37019 ft 464 kts 135°
2026-05-08 04:49 44.62198 14.78726 37028 ft 465 kts 135°
2026-05-08 04:50 44.58082 14.85725 37034 ft 465 kts 135°
2026-05-08 04:50 44.53959 14.92718 37015 ft 466 kts 135°
2026-05-08 04:51 44.49825 14.99714 37029 ft 466 kts 135°
2026-05-08 04:51 44.45684 15.06703 37038 ft 466 kts 135°
2026-05-08 04:52 44.41542 15.13679 37023 ft 466 kts 135°
2026-05-08 04:52 44.37394 15.20646 37025 ft 466 kts 135°
2026-05-08 04:53 44.33249 15.27592 37025 ft 465 kts 135°
2026-05-08 04:53 44.29104 15.34521 37026 ft 464 kts 135°
2026-05-08 04:54 44.24997 15.41370 37014 ft 463 kts 135°
2026-05-08 04:54 44.20865 15.48244 37030 ft 462 kts 135°
2026-05-08 04:55 44.16735 15.55097 37019 ft 461 kts 135°
2026-05-08 04:55 44.12609 15.61929 37024 ft 461 kts 135°
2026-05-08 04:56 44.08486 15.68738 37032 ft 460 kts 135°
2026-05-08 04:56 44.04358 15.75541 37018 ft 460 kts 135°
2026-05-08 04:57 44.00234 15.82321 37024 ft 459 kts 135°
2026-05-08 04:57 43.96109 15.89087 37026 ft 459 kts 135°
2026-05-08 04:58 43.91984 15.95837 37020 ft 458 kts 135°
2026-05-08 04:58 43.87867 16.02560 37034 ft 457 kts 136°
2026-05-08 04:59 43.83614 16.09079 37026 ft 454 kts 139°
2026-05-08 04:59 43.79203 16.15315 37024 ft 453 kts 140°
2026-05-08 05:00 43.74786 16.21531 37021 ft 453 kts 140°
2026-05-08 05:00 43.70394 16.27761 37018 ft 452 kts 139°
2026-05-08 05:01 43.66013 16.33993 37026 ft 452 kts 139°
2026-05-08 05:01 43.61632 16.40217 37028 ft 452 kts 139°
2026-05-08 05:02 43.57247 16.46432 37009 ft 452 kts 139°
2026-05-08 05:02 43.52865 16.52627 37027 ft 451 kts 139°
2026-05-08 05:03 43.48477 16.58817 37008 ft 451 kts 139°
2026-05-08 05:03 43.44089 16.64993 37036 ft 451 kts 139°
2026-05-08 05:04 43.39689 16.71170 37018 ft 452 kts 139°
2026-05-08 05:04 43.35322 16.77290 37030 ft 451 kts 139°
2026-05-08 05:05 43.30922 16.83443 37025 ft 451 kts 139°
2026-05-08 05:05 43.26521 16.89585 37032 ft 451 kts 139°
2026-05-08 05:06 43.22115 16.95718 37024 ft 451 kts 139°
2026-05-08 05:06 43.17710 17.01840 37026 ft 451 kts 139°
2026-05-08 05:07 43.13303 17.07946 37025 ft 450 kts 140°
2026-05-08 05:07 43.08745 17.13793 37024 ft 449 kts 143°
2026-05-08 05:08 43.04095 17.19492 37031 ft 449 kts 143°
2026-05-08 05:08 42.99453 17.25201 37023 ft 449 kts 142°
2026-05-08 05:09 42.94823 17.30934 37029 ft 450 kts 142°
2026-05-08 05:09 42.90186 17.36686 37022 ft 451 kts 142°
2026-05-08 05:10 42.83219 17.45312 37020 ft 451 kts 142°
2026-05-08 05:11 42.78566 17.51055 37024 ft 451 kts 143°
2026-05-08 05:11 42.73908 17.56793 37008 ft 451 kts 142°
2026-05-08 05:12 42.69249 17.62518 37008 ft 452 kts 143°
2026-05-08 05:12 42.64588 17.68234 37011 ft 451 kts 143°
2026-05-08 05:13 42.60072 17.73761 37012 ft 451 kts 143°
2026-05-08 05:13 42.55414 17.79450 37009 ft 451 kts 143°
2026-05-08 05:14 42.50753 17.85131 37012 ft 450 kts 143°
2026-05-08 05:14 42.46095 17.90796 37008 ft 450 kts 143°
2026-05-08 05:15 42.41436 17.96449 37010 ft 449 kts 143°
2026-05-08 05:15 42.36780 18.02089 37008 ft 449 kts 143°
2026-05-08 05:16 42.32125 18.07715 37005 ft 449 kts 143°
2026-05-08 05:16 42.27468 18.13331 37001 ft 449 kts 143°
2026-05-08 05:17 42.22806 18.18942 37001 ft 449 kts 143°
2026-05-08 05:17 42.18140 18.24546 36996 ft 449 kts 143°
2026-05-08 05:18 42.13462 18.30153 36997 ft 450 kts 143°
2026-05-08 05:18 42.08773 18.35761 36996 ft 451 kts 143°
2026-05-08 05:19 42.04067 18.41379 37004 ft 453 kts 143°
2026-05-08 05:19 41.99335 18.47015 36963 ft 456 kts 144°
2026-05-08 05:20 41.94547 18.52703 37001 ft 463 kts 144°
2026-05-08 05:20 41.89703 18.58449 37013 ft 466 kts 144°
2026-05-08 05:21 41.84830 18.64220 36995 ft 468 kts 144°
2026-05-08 05:21 41.79968 18.69970 36993 ft 462 kts 144°
2026-05-08 05:22 41.75181 18.75617 37001 ft 458 kts 144°
2026-05-08 05:22 41.70402 18.81237 37008 ft 457 kts 144°
2026-05-08 05:23 41.65626 18.86841 37008 ft 457 kts 144°
2026-05-08 05:23 41.60877 18.92406 37011 ft 457 kts 144°
2026-05-08 05:24 41.56090 18.98003 37005 ft 458 kts 144°
2026-05-08 05:24 41.51291 19.03606 37009 ft 459 kts 144°
2026-05-08 05:25 41.46389 19.09030 36996 ft 454 kts 152°
2026-05-08 05:25 41.40796 19.12619 37017 ft 443 kts 165°
2026-05-08 05:26 41.34980 19.15376 37004 ft 444 kts 166°
2026-05-08 05:26 41.29162 19.18143 37005 ft 444 kts 165°
2026-05-08 05:27 41.23344 19.20955 37008 ft 445 kts 165°
2026-05-08 05:27 41.17530 19.23781 37005 ft 445 kts 165°
2026-05-08 05:28 41.11708 19.26609 36998 ft 445 kts 165°
2026-05-08 05:28 41.06873 19.28952 37001 ft 445 kts 165°
2026-05-08 05:29 41.01024 19.31781 37004 ft 444 kts 165°
2026-05-08 05:29 40.95224 19.34580 37005 ft 444 kts 165°
2026-05-08 05:30 40.89465 19.37354 37007 ft 443 kts 165°
2026-05-08 05:30 40.83674 19.40139 37007 ft 443 kts 166°
2026-05-08 05:31 40.77841 19.42938 37005 ft 443 kts 166°
2026-05-08 05:31 40.72053 19.45711 37008 ft 443 kts 166°
2026-05-08 05:32 40.66252 19.48485 37010 ft 444 kts 166°
2026-05-08 05:32 40.60445 19.51257 37006 ft 444 kts 166°
2026-05-08 05:33 40.54635 19.54024 37008 ft 444 kts 166°
2026-05-08 05:33 40.48821 19.56780 37013 ft 444 kts 167°
2026-05-08 05:34 40.42997 19.59535 37014 ft 445 kts 167°
2026-05-08 05:34 40.37165 19.62291 37012 ft 446 kts 167°
2026-05-08 05:35 40.31327 19.65045 37012 ft 446 kts 167°
2026-05-08 05:35 40.25487 19.67795 37010 ft 446 kts 167°
2026-05-08 05:36 40.19645 19.70542 37006 ft 446 kts 167°
2026-05-08 05:36 40.13842 19.73264 37027 ft 446 kts 167°
2026-05-08 05:37 40.08000 19.76000 37024 ft 446 kts 167°
2026-05-08 05:37 40.02128 19.78742 36499 ft 452 kts 167°
2026-05-08 05:37 39.99176 19.80122 35940 ft 450 kts 168°
2026-05-08 05:38 39.96673 19.81291 35395 ft 450 kts 168°
2026-05-08 05:38 39.93724 19.82666 34729 ft 451 kts 168°
2026-05-08 05:38 39.90767 19.84042 34071 ft 452 kts 168°
2026-05-08 05:38 39.87798 19.85451 33099 ft 458 kts 167°
2026-05-08 05:39 39.84811 19.86942 32309 ft 460 kts 166°
2026-05-08 05:39 39.81822 19.88468 31513 ft 462 kts 165°
2026-05-08 05:39 39.78827 19.90003 30744 ft 463 kts 165°
2026-05-08 05:39 39.75832 19.91531 30094 ft 462 kts 165°
2026-05-08 05:40 39.72853 19.93045 29458 ft 457 kts 165°
2026-05-08 05:40 39.69898 19.94539 28822 ft 453 kts 165°
2026-05-08 05:40 39.66978 19.96010 28258 ft 448 kts 165°
2026-05-08 05:40 39.64091 19.97459 27694 ft 442 kts 165°
2026-05-08 05:41 39.61231 19.98893 27129 ft 438 kts 165°
2026-05-08 05:41 39.58405 20.00307 26599 ft 433 kts 165°
2026-05-08 05:41 39.55602 20.01708 26051 ft 431 kts 165°
2026-05-08 05:41 39.52813 20.03101 25487 ft 428 kts 165°
2026-05-08 05:42 39.50046 20.04484 24951 ft 424 kts 165°
2026-05-08 05:42 39.47305 20.05853 24427 ft 421 kts 165°
2026-05-08 05:42 39.44547 20.07003 23899 ft 412 kts 173°
2026-05-08 05:42 39.41745 20.07571 23195 ft 405 kts 182°
2026-05-08 05:43 39.38950 20.07721 22626 ft 400 kts 183°
2026-05-08 05:43 39.36181 20.07851 22063 ft 396 kts 183°
2026-05-08 05:43 39.33437 20.07985 21555 ft 393 kts 183°
2026-05-08 05:43 39.30701 20.08126 21020 ft 393 kts 183°
2026-05-08 05:44 39.27971 20.08276 20473 ft 392 kts 183°
2026-05-08 05:44 39.25252 20.08430 19926 ft 389 kts 183°
2026-05-08 05:44 39.22562 20.08588 19442 ft 385 kts 183°
2026-05-08 05:44 39.19894 20.08745 18935 ft 382 kts 183°
2026-05-08 05:45 39.17251 20.08900 18437 ft 379 kts 183°
2026-05-08 05:45 39.14624 20.09053 17858 ft 377 kts 183°
2026-05-08 05:45 39.12016 20.09206 17318 ft 373 kts 182°
2026-05-08 05:45 39.09431 20.09356 16799 ft 370 kts 182°
2026-05-08 05:46 39.06874 20.09506 16300 ft 366 kts 182°
2026-05-08 05:46 39.04339 20.09653 15813 ft 363 kts 182°
2026-05-08 05:46 39.01825 20.09799 15330 ft 360 kts 182°
2026-05-08 05:46 38.99328 20.09944 14856 ft 359 kts 182°
2026-05-08 05:47 38.96837 20.10088 14357 ft 357 kts 182°
2026-05-08 05:47 38.94363 20.10230 13829 ft 356 kts 182°
2026-05-08 05:47 38.91897 20.10370 13298 ft 353 kts 182°
2026-05-08 05:47 38.89454 20.10508 12790 ft 349 kts 182°
2026-05-08 05:48 38.87039 20.10644 12317 ft 345 kts 182°
2026-05-08 05:48 38.84655 20.10779 11854 ft 341 kts 182°
2026-05-08 05:48 38.82297 20.10911 11386 ft 337 kts 182°
2026-05-08 05:48 38.79963 20.11042 10930 ft 334 kts 182°
2026-05-08 05:49 38.77689 20.11171 10816 ft 321 kts 182°
2026-05-08 05:49 38.75499 20.11297 10664 ft 310 kts 183°
2026-05-08 05:49 38.73382 20.11417 10539 ft 299 kts 183°
2026-05-08 05:49 38.71367 20.11531 10414 ft 289 kts 183°
2026-05-08 05:50 38.69396 20.11641 10293 ft 279 kts 183°
2026-05-08 05:50 38.67493 20.11748 10179 ft 269 kts 183°
2026-05-08 05:50 38.65658 20.11850 10072 ft 259 kts 184°
2026-05-08 05:50 38.63878 20.11948 9850 ft 255 kts 184°
2026-05-08 05:51 38.62122 20.12043 9609 ft 251 kts 184°
2026-05-08 05:51 38.60384 20.12137 9337 ft 249 kts 184°
2026-05-08 05:51 38.58659 20.12231 9065 ft 247 kts 183°
2026-05-08 05:51 38.56954 20.12324 8813 ft 244 kts 183°
2026-05-08 05:52 38.55262 20.12417 8553 ft 242 kts 183°
2026-05-08 05:52 38.53581 20.12510 8295 ft 241 kts 182°
2026-05-08 05:52 38.51915 20.12602 8034 ft 239 kts 182°
2026-05-08 05:52 38.50258 20.12693 7782 ft 237 kts 182°
2026-05-08 05:53 38.48615 20.12784 7526 ft 235 kts 182°
2026-05-08 05:53 38.46988 20.12875 7277 ft 233 kts 182°
2026-05-08 05:53 38.45374 20.12964 7029 ft 231 kts 181°
2026-05-08 05:53 38.43773 20.13053 6780 ft 230 kts 181°
2026-05-08 05:54 38.42183 20.13160 6538 ft 229 kts 176°
2026-05-08 05:54 38.40679 20.13869 6330 ft 233 kts 154°
2026-05-08 05:54 38.39418 20.15182 6111 ft 235 kts 143°
2026-05-08 05:54 38.38262 20.16655 5874 ft 234 kts 141°
2026-05-08 05:55 38.37127 20.18126 5631 ft 232 kts 141°
2026-05-08 05:55 38.35994 20.19573 5402 ft 229 kts 142°
2026-05-08 05:55 38.34934 20.20914 5194 ft 226 kts 142°
2026-05-08 05:55 38.33806 20.22329 4963 ft 230 kts 142°
2026-05-08 05:56 38.32652 20.23772 4783 ft 234 kts 142°
2026-05-08 05:56 38.31563 20.25324 4664 ft 241 kts 127°
2026-05-08 05:56 38.30945 20.27302 4575 ft 239 kts 113°
2026-05-08 05:56 38.30549 20.29326 4470 ft 232 kts 111°
2026-05-08 05:57 38.30183 20.31291 4363 ft 224 kts 112°
2026-05-08 05:57 38.29822 20.33187 4272 ft 217 kts 112°
2026-05-08 05:57 38.29368 20.34977 4047 ft 205 kts 132°
2026-05-08 05:57 38.28384 20.36168 3859 ft 194 kts 151°
2026-05-08 05:58 38.27274 20.37119 3640 ft 190 kts 153°
2026-05-08 05:58 38.26185 20.38027 3428 ft 184 kts 153°
2026-05-08 05:58 38.25118 20.38911 3171 ft 181 kts 153°
2026-05-08 05:58 38.24074 20.39776 2921 ft 177 kts 152°
2026-05-08 05:59 38.23066 20.40613 2717 ft 169 kts 152°
2026-05-08 05:59 38.22117 20.41407 2499 ft 157 kts 152°
2026-05-08 05:59 38.21232 20.42146 2244 ft 147 kts 150°
2026-05-08 05:59 38.20401 20.42841 2033 ft 139 kts 150°
2026-05-08 06:00 38.19618 20.43492 1871 ft 128 kts 149°
2026-05-08 06:00 38.18920 20.44077 1682 ft 116 kts 148°
2026-05-08 06:00 38.18257 20.44634 1486 ft 114 kts 148°
2026-05-08 06:00 38.17576 20.45199 1310 ft 119 kts 148°
2026-05-08 06:01 38.16876 20.45782 1134 ft 120 kts 147°
2026-05-08 06:01 38.16173 20.46368 1029 ft 122 kts 146°
2026-05-08 06:01 38.15504 20.46979 788 ft 123 kts 142°
2026-05-08 06:01 38.14795 20.47641 597 ft 130 kts 143°
2026-05-08 06:02 38.14025 20.48297 384 ft 139 kts 146°
2026-05-08 06:02 38.13203 20.49022 107 ft 150 kts 143°
2026-05-08 06:02 38.12390 20.49699 62 ft 127 kts 145°
2026-05-08 06:02 38.11826 20.50192 65 ft 53 kts 145°
2026-05-08 06:03 38.11770 20.50342 64 ft 12 kts 31°
2026-05-08 06:03 38.11861 20.50363 67 ft 18 kts 40°
2026-05-08 06:03 38.11883 20.50405 64 ft 1 kts 59°
2026-05-08 06:03 38.11910 20.50416 66 ft 0 kts